Regional Weather Roundup
Issued by NWS

Home | Current Version | Previous Version | Graphics & Text | Print | Product List | Glossary On
Versions: 1 2 3 4 5 6 7 8 9 10 11 12 13 14 15 16 17 18 19 20 21 22 23 24 25 26 27 28
000
ASUS45 KSLC 230510
RWRUT

UTAH REGIONAL WEATHER ROUNDUP
NATIONAL WEATHER SERVICE SALT LAKE CITY UT
1100 PM MDT FRI SEP 22 2017

UTZ001>011-023>025-230600-

NORTHERN UTAH

CITY           SKY/WX    TMP DP  RH WIND       PRES   REMARKS
BRIGHAM CITY   MOCLDY    45  37  72 SE5       29.99S
HILL AFB       CLEAR     41  35  80 E8        29.97F
LOGAN          CLOUDY    44  37  76 N6        29.99F
OGDEN          CLEAR     43  37  79 E3        29.97S
SALT LAKE CITY CLEAR     47  40  76 CALM      29.97R
TOOELE VALLEY  PTCLDY    41  39  93 S5        29.99S
WENDOVER       CLEAR     39  37  92 CALM      30.00S
HEBER CITY     CLEAR     34  32  93 SE6       29.96S WCI  29
WEST JORDAN    CLEAR     42  42  97 W5        29.98S

$$

UTZ011>015-024>027-230600-

CENTRAL/NORTHEAST UTAH

CITY           SKY/WX    TMP DP  RH WIND       PRES   REMARKS
PROVO AIRPORT  CLEAR     44  38  79 N5        29.97S
MOAB/CANYONLAN PTCLDY    61  30  31 W16       29.75R
DELTA          PTCLDY    41  36  81 NW8       29.95F
PRICE          PTCLDY    49  27  42 N10G20    29.87S
RICHFIELD      CLEAR     43  37  81 CALM      29.96S
ROOSEVELT      PTCLDY    50  32  50 SW13      29.90R
VERNAL         PTCLDY    50  34  54 N8        29.88R

$$

UTZ013>016-019>022-027-230600-

SOUTHERN UTAH

CITY           SKY/WX    TMP DP  RH WIND       PRES   REMARKS
BRYCE CANYON   CLEAR     38  30  73 NE10      29.94R WCI  31
CEDAR CITY     CLEAR     40  38  93 NW3       29.91S
MILFORD        CLEAR     44  39  82 N18       29.93R
ST GEORGE      CLEAR     61  21  21 NE6       29.79S
HANKSVILLE     CLEAR     55  28  35 CALM      29.81R
KANAB          CLEAR     43  25  49 NE1       29.89S
BLANDING         N/A     58  26  28 S7        29.93S

$$

REGIONAL REPORTS     COLORADO/ARIZONA

CITY           SKY/WX    TMP DP  RH WIND       PRES   REMARKS
CRAIG, CO      LGT RAIN  51  40  65 N17       29.94R
GRAND JUNCTION PTCLDY    69  31  24 S16G25    29.77S
RIFLE, CO      MOCLDY    64  36  35 SW8       29.84S
MONTROSE, CO   MOCLDY    57  41  55 S8        29.88R
CORTEZ, CO     CLEAR     56  32  40 S8        29.90R
PAGE, AZ       CLEAR     63  22  20 W6        29.79R
GRAND CANYON   CLEAR     33  14  45 CALM      29.92F
KINGMAN, AZ    CLEAR     52  22  30 E6        29.81S
FLAGSTAFF, AZ  PTCLDY    45  30  55 CALM      29.94S

$$

REGIONAL REPORTS    NEVADA/IDAHO/WYOMING

CITY           SKY/WX    TMP DP  RH WIND       PRES   REMARKS
LAS VEGAS, NV  CLEAR     69  24  18 W5        29.76R
ELY, NY        FOG       31  31 100 N7        30.00S VSB 3/4 WCI  24
ELKO, NV       CLEAR     35  32  88 CALM      30.01R
POCATELLO, ID  CLOUDY    38  33  82 SW7       30.01R WCI  33
BURLEY, ID     CLEAR     38  34  85 SW5       30.00S WCI  34
FORT BRIDGER,  CLOUDY    37  37 100 W6        30.02F WCI  32
EVANSTON, WY   CLOUDY    36  31  82 CALM      30.00S
ROCK SPRINGS,  LGT RAIN  35  33  92 N8        30.01F WCI  29
KEMMERER, WY     N/A     36  34  93 CALM      30.01S

$$




USA.gov is the U.S. government's official web portal to all federal, state and local government web resources and services.